Date String (YYYY-MM-DD hh:mm:ss) UTC,Instrument flags,Ambient pressure (hPa),Sample flow (lpm),Bypass flow (lpm),Sample temperature (°C),Ambient temperature (°C),ASC tube jacket temperature (°C),LED temperature (°C),Box temperature (°C),Sample RH (%),Span deviation,Mass concentration (μg/m³),Mass concentration (μg/m³),Mass concentration (μg/m³)
DateTimeUTC,F1_M11,P_M11,Q1_M11,Q2_M11,T1_M11,T2_M11,T3_M11,T4_M11,T5_M11,U1_M11,ZSPAN_M11,X0_M11,X2_M11,X1_M11
2022-07-04 23:00:00,,0826.7,5.00,0.00,29.1,26.7,00.0,37.8,30.9,20.7,0000.0,0006.16,0002.42,0001.47
2022-07-04 23:01:00,,0826.7,5.00,0.00,29.1,26.8,00.0,37.8,30.9,21.1,0000.0,0006.07,0002.41,0001.49
2022-07-04 23:02:00,,0826.5,5.00,0.00,29.0,26.9,00.0,37.8,30.8,21.2,0000.0,0005.28,0002.33,0001.50
2022-07-04 23:03:00,,0826.4,5.01,0.00,29.0,27.1,00.0,37.8,30.9,21.3,0000.0,0005.16,0002.28,0001.49
2022-07-04 23:04:00,,0826.3,5.00,0.00,29.0,27.3,00.0,37.8,30.9,21.8,0000.0,0005.09,0002.27,0001.49
2022-07-04 23:05:00,,0826.2,4.99,0.00,29.1,27.6,00.0,37.8,31.0,22.8,0000.0,0004.78,0002.24,0001.50
2022-07-04 23:06:00,,0826.2,5.00,0.00,29.1,27.7,00.0,37.8,31.0,23.3,0000.0,0004.52,0002.16,0001.49
2022-07-04 23:07:00,,0826.1,5.00,0.00,29.1,27.9,00.0,37.8,31.1,24.4,0000.0,0004.33,0002.06,0001.50
2022-07-04 23:08:00,,0825.8,5.01,0.00,29.2,28.1,00.0,37.9,31.2,24.6,0000.0,0004.25,0002.03,0001.51
2022-07-04 23:09:00,,0825.5,4.99,0.00,29.2,28.2,00.0,37.9,31.2,23.7,0000.0,0003.78,0002.01,0001.49
2022-07-04 23:10:00,,0825.5,4.99,0.00,29.3,28.3,00.0,37.9,31.3,22.9,0000.0,0003.29,0001.99,0001.47
2022-07-04 23:11:00,,0825.4,5.00,0.00,29.3,27.7,00.0,37.9,31.2,23.3,0000.0,0003.10,0001.92,0001.45
2022-07-04 23:12:00,,0825.4,5.01,0.00,29.2,27.0,00.0,37.8,31.1,23.4,0000.0,0003.07,0001.94,0001.45
2022-07-04 23:13:00,,0825.2,5.00,0.00,29.2,26.8,00.0,37.8,31.0,23.6,0000.0,0003.23,0002.01,0001.44
2022-07-04 23:14:00,,0825.2,4.99,0.00,29.1,26.8,00.0,37.8,30.9,24.1,0000.0,0003.25,0002.02,0001.43
2022-07-04 23:15:00,,0825.3,5.00,0.00,29.1,27.0,00.0,37.8,30.9,24.2,0000.0,0003.21,0002.00,0001.42
2022-07-04 23:16:00,,0825.3,5.01,0.00,29.1,27.2,00.0,37.8,30.9,26.0,0000.0,0003.20,0001.97,0001.41
2022-07-04 23:17:00,,0825.3,5.00,0.00,29.1,27.4,00.0,37.8,30.9,27.7,0000.0,0003.19,0001.97,0001.40
2022-07-04 23:18:00,,0825.3,5.00,0.00,29.1,27.6,00.0,37.8,31.0,25.0,0000.0,0003.13,0001.97,0001.38
2022-07-04 23:19:00,,0825.3,5.00,0.00,29.1,27.8,00.0,37.8,31.1,23.6,0000.0,0003.07,0001.94,0001.34
2022-07-04 23:20:00,,0825.3,5.00,0.00,29.1,27.9,00.0,37.8,31.1,22.3,0000.0,0003.81,0001.90,0001.29
2022-07-04 23:21:00,,0825.3,5.01,0.00,29.2,28.1,00.0,37.9,31.2,20.9,0000.0,0004.18,0001.84,0001.23
2022-07-04 23:22:00,,0825.4,4.99,0.00,29.2,28.2,00.0,37.9,31.2,20.2,0000.0,0004.19,0001.80,0001.19
2022-07-04 23:23:00,,0825.3,5.01,0.00,29.2,27.9,00.0,37.9,31.2,20.6,0000.0,0004.10,0001.74,0001.14
2022-07-04 23:24:00,,0825.3,5.00,0.00,29.2,27.1,00.0,37.8,31.1,21.1,0000.0,0003.93,0001.62,0001.10
2022-07-04 23:25:00,,0825.3,5.00,0.00,29.1,26.8,00.0,37.8,31.0,22.3,0000.0,0003.93,0001.61,0001.07
2022-07-04 23:26:00,,0825.2,5.00,0.00,29.1,26.8,00.0,37.8,30.9,27.1,0000.0,0004.00,0001.61,0001.04
2022-07-04 23:27:00,,0825.2,5.01,0.00,29.0,26.9,00.0,37.8,30.8,28.0,0000.0,0004.98,0001.61,0001.04
2022-07-04 23:28:00,,0825.2,5.00,0.00,29.0,27.1,00.0,37.8,30.8,27.5,0000.0,0005.60,0001.59,0001.02
2022-07-04 23:29:00,,0825.2,5.01,0.00,29.0,27.3,00.0,37.8,30.9,28.1,0000.0,0005.62,0001.60,0001.01
2022-07-04 23:30:00,,0825.0,5.00,0.00,29.0,27.5,00.0,37.8,31.0,28.1,0000.0,0006.26,0001.60,0001.02
2022-07-04 23:31:00,,0824.9,5.00,0.00,29.1,27.7,00.0,37.8,31.0,22.5,0000.0,0005.70,0001.57,0001.05
2022-07-04 23:32:00,,0824.9,5.00,0.00,29.1,27.8,00.0,37.8,31.1,19.4,0000.0,0005.22,0001.65,0001.11
2022-07-04 23:33:00,,0824.9,4.99,0.00,29.1,28.0,00.0,37.8,31.1,18.5,0000.0,0005.40,0001.75,0001.19
2022-07-04 23:34:00,,0824.9,5.00,0.00,29.2,28.1,00.0,37.9,31.2,18.1,0000.0,0005.59,0001.87,0001.27
2022-07-04 23:35:00,,0824.9,5.01,0.00,29.2,28.2,00.0,37.9,31.2,18.4,0000.0,0005.81,0001.98,0001.36
2022-07-04 23:36:00,,0824.9,5.01,0.00,29.3,28.1,00.0,37.9,31.3,18.2,0000.0,0005.98,0002.07,0001.42
2022-07-04 23:37:00,,0824.9,4.99,0.00,29.2,27.4,00.0,37.8,31.1,18.2,0000.0,0006.54,0002.17,0001.49
2022-07-04 23:38:00,,0824.9,5.01,0.00,29.2,26.9,00.0,37.8,31.0,18.3,0000.0,0006.53,0002.22,0001.54
2022-07-04 23:39:00,,0824.9,5.00,0.00,29.1,26.8,00.0,37.8,30.9,18.5,0000.0,0005.63,0002.29,0001.59
2022-07-04 23:40:00,,0824.9,5.00,0.00,29.1,26.9,00.0,37.8,30.9,18.2,0000.0,0005.81,0002.39,0001.63
2022-07-04 23:41:00,,0824.9,5.00,0.00,29.1,27.1,00.0,37.8,30.9,19.1,0000.0,0005.35,0002.44,0001.66
2022-07-04 23:42:00,,0824.9,5.01,0.00,29.1,27.3,00.0,37.8,30.9,19.5,0000.0,0005.53,0002.54,0001.68
2022-07-04 23:43:00,,0824.9,5.00,0.00,29.1,27.5,00.0,37.8,31.0,19.6,0000.0,0006.27,0002.52,0001.67
2022-07-04 23:44:00,,0824.9,5.00,0.00,29.1,27.7,00.0,37.8,31.0,18.7,0000.0,0007.03,0002.54,0001.64
2022-07-04 23:45:00,,0824.9,5.00,0.00,29.1,27.9,00.0,37.8,31.1,19.0,0000.0,0007.39,0002.49,0001.62
2022-07-04 23:46:00,,0824.9,5.00,0.00,29.2,28.0,00.0,37.9,31.2,18.7,0000.0,0007.39,0002.49,0001.58
2022-07-04 23:47:00,,0824.9,5.00,0.00,29.2,28.2,00.0,37.9,31.2,21.3,0000.0,0007.40,0002.45,0001.54
2022-07-04 23:48:00,,0824.9,5.00,0.00,29.3,28.3,00.0,37.9,31.3,22.8,0000.0,0006.92,0002.34,0001.47
2022-07-04 23:49:00,,0824.9,5.00,0.00,29.3,28.1,00.0,37.9,31.3,24.2,0000.0,0006.58,0002.25,0001.41
2022-07-04 23:50:00,,0824.9,5.00,0.00,29.3,27.3,00.0,37.8,31.1,27.8,0000.0,0006.55,0002.20,0001.36
2022-07-04 23:51:00,,0825.0,5.00,0.00,29.2,26.8,00.0,37.8,31.0,28.4,0000.0,0006.40,0002.10,0001.33
2022-07-04 23:52:00,,0825.0,5.00,0.00,29.2,26.8,00.0,37.8,30.9,28.7,0000.0,0006.21,0002.03,0001.31
2022-07-04 23:53:00,,0825.0,5.01,0.00,29.1,26.9,00.0,37.8,30.9,29.0,0000.0,0005.98,0001.94,0001.28
2022-07-04 23:54:00,,0825.0,5.00,0.00,29.1,27.1,00.0,37.8,30.9,28.2,0000.0,0005.89,0001.92,0001.26
2022-07-04 23:55:00,,0824.9,4.99,0.00,29.1,27.3,00.0,37.8,30.9,26.5,0000.0,0004.95,0001.83,0001.23
2022-07-04 23:56:00,,0825.0,5.00,0.00,29.1,27.5,00.0,37.8,31.0,27.6,0000.0,0005.34,0001.81,0001.21
2022-07-04 23:57:00,,0825.0,4.99,0.00,29.1,27.7,00.0,37.8,31.1,27.7,0000.0,0005.85,0001.79,0001.21
2022-07-04 23:58:00,,0825.0,4.99,0.00,29.1,27.9,00.0,37.9,31.1,26.2,0000.0,0005.75,0001.78,0001.22
2022-07-04 23:59:00,,0824.9,5.00,0.00,29.2,28.0,00.0,37.9,31.2,26.7,0000.0,0005.80,0001.80,0001.25
